Tracking 30703 objects as of 14-Jun-2025
HD Live streaming from Space Station
objects crossing your sky now

STARLINK-6191

Track STARLINK-6191 now!
10-day predictions
STARLINK-6191 is classified as:


NORAD ID: 56378
Int'l Code: 2023-061E
Perigee: 565.3 km
Apogee: 567.1 km
Inclination: 43.0 °
Period: 95.8 minutes
Semi major axis: 6937 km
RCS: Unknown
Launch date: May 4, 2023
Source: United States (US)
Launch site: AIR FORCE EASTERN TEST RANGE (AFETR)
Your satellite tracking list
Your tracking list is empty




NASA's NSSDC Master Catalog

Two Line Element Set (TLE):
1 56378U 23061E   25164.85843504  .00000158  00000-0  26765-4 0  9990
2 56378  43.0028 218.3700 0001320 272.7876  87.2815 15.02536690116314
Source of the keplerian elements: AFSPC